FW3268 Weather Reports


Display with metric or nautical units.
time (UTC)temp
F
wind
direction
speed
MPH
gust
MPH
rain 1hr
in
rain 24hr
in
rain mn
in
humidity
%
barometer
mb
20260903193002 93 262 0.0 0.0 0.00 0.00 0.00 66 1014.5
20260903191500 93 279 0.0 0.0 0.00 0.00 0.00 62 1014.8
20260903190003 92 284 0.0 0.0 0.00 0.00 0.00 64 1014.9
20260903184500 93 239 0.0 0.0 0.00 0.00 0.00 64 1015.0
20260903183002 92 238 0.0 0.0 0.00 0.00 0.00 63 1015.0
20260903181500 92 276 0.0 0.0 0.00 0.00 0.00 62 1015.1
20260903180003 92 240 0.0 0.0 0.00 0.00 0.00 64 1015.0
20260903174500 91 264 0.0 0.0 0.00 0.00 0.00 66 1015.2
20260903173000 91 264 0.0 0.0 0.00 0.00 0.00 67 1015.1
20260903170002 91 264 0.0 0.0 0.00 0.00 0.00 65 1015.6
20260903164500 90 246 0.0 0.0 0.00 0.00 0.00 65 1015.7
20260903163010 90 264 0.0 0.0 0.00 0.00 0.00 68 1015.8
20260903161500 89 280 0.0 0.0 0.00 0.00 0.00 68 1016.0
20260903160004 89 275 0.0 0.0 0.00 0.00 0.00 69 1016.0
20260903154501 88 286 0.0 0.0 0.00 0.00 0.00 71 1016.1
20260903153001 88 217 0.0 0.0 0.00 0.00 0.00 73 1016.1
20260903151500 87 259 0.0 0.0 0.00 0.00 0.00 73 1016.0
20260903144501 86 287 0.0 0.0 0.00 0.00 0.00 76 1016.0
20260903143000 84 265 0.0 0.0 0.00 0.00 0.00 77 1015.9
20260903141500 83 264 0.0 0.0 0.00 0.00 0.00 78 1015.8
20260903140002 82 291 0.0 0.0 0.00 0.00 0.00 80 1015.9
20260903134500 81 252 0.0 0.0 0.00 0.00 0.00 81 1016.0
20260903131459 79 269 0.0 0.0 0.00 0.00 0.00 86 1016.3
20260903130002 78 233 0.0 0.0 0.00 0.00 0.00 86 1016.3
20260903122959 76 219 0.0 0.0 0.00 0.00 0.00 88 1016.3
20260903120004 76 264 0.0 0.0 0.00 0.00 0.00 87 1016.2
20260903114459 75 253 0.0 0.0 0.00 0.00 0.00 87 1016.1
20260903112959 75 248 0.0 0.0 0.00 0.00 0.00 87 1016.0
20260903111459 75 267 0.0 0.0 0.00 0.00 0.00 88 1015.9
20260903110002 76 264 0.0 0.0 0.00 0.00 0.00 86 1015.9
20260903104459 76 266 0.0 0.0 0.00 0.00 0.00 86 1015.7
20260903102959 76 278 0.0 0.0 0.00 0.00 0.00 86 1015.7
20260903101459 75 272 0.0 0.0 0.00 0.00 0.00 88 1015.7
20260903100002 74 244 0.0 0.0 0.00 0.00 0.00 90 1015.6
20260903092959 76 249 0.0 0.0 0.00 0.00 0.00 87 1015.5
20260903091459 76 259 0.0 0.0 0.00 0.00 0.00 87 1015.5
20260903090001 76 264 0.0 0.0 0.00 0.00 0.00 87 1015.4
20260903084459 76 259 0.0 0.0 0.00 0.00 0.00 88 1015.4
20260903082959 76 238 0.0 0.0 0.00 0.00 0.00 89 1015.4
20260903081459 75 246 0.0 0.0 0.00 0.00 0.00 89 1015.4
20260903074459 75 248 0.0 0.0 0.00 0.00 0.00 90 1015.3
20260903073000 75 243 0.0 0.0 0.00 0.00 0.00 91 1015.3
20260903071459 75 229 0.0 0.0 0.00 0.00 0.00 91 1015.2
20260903070002 75 243 0.0 0.0 0.00 0.00 0.00 91 1015.3
20260903064459 75 230 0.0 0.0 0.00 0.00 0.00 91 1015.4
20260903062959 76 224 0.0 0.0 0.00 0.00 0.00 91 1015.5
20260903061458 76 225 0.0 0.0 0.00 0.00 0.00 90 1015.3
20260903060003 76 228 0.0 0.0 0.00 0.00 0.00 90 1015.3
20260903054459 76 236 0.0 0.0 0.00 0.00 0.00 90 1015.4
20260903052958 77 237 0.0 0.0 0.00 0.00 0.00 89 1015.3
20260903050003 78 236 0.0 0.0 0.00 0.00 0.00 87 1015.0
20260903044501 79 236 0.0 0.0 0.00 0.00 0.00 87 1014.9
20260903043000 78 232 0.0 0.0 0.00 0.00 0.00 88 1014.8
20260903040008 78 249 0.0 0.0 0.00 0.00 0.00 89 1015.0
20260903034502 78 233 0.0 0.0 0.00 0.00 0.00 89 1015.0
20260903033001 78 253 0.0 0.0 0.00 0.00 0.00 89 1015.0
20260903030005 79 229 0.0 0.0 0.00 0.00 0.00 88 1015.2
20260903024501 79 229 0.0 0.0 0.00 0.00 0.00 88 1015.3
20260903023002 79 229 0.0 0.0 0.00 0.00 0.00 88 1015.3
20260903020005 79 239 0.0 0.0 0.00 0.00 0.00 89 1015.3
20260903014500 79 239 0.0 0.0 0.00 0.00 0.00 89 1015.2
20260903013001 80 239 0.0 0.0 0.00 0.00 0.00 88 1015.2
20260903011502 80 239 0.0 0.0 0.00 0.00 0.00 88 1015.0
20260903004504 81 239 0.0 0.0 0.00 0.00 0.00 87 1014.8
20260903003002 82 239 0.0 0.0 0.00 0.00 0.00 84 1014.7
20260903001500 84 239 0.0 0.0 0.00 0.00 0.00 82 1014.7
20260903000004 85 248 0.0 0.0 0.00 0.00 0.00 79 1014.8
20260902234500 87 257 0.0 0.0 0.00 0.00 0.00 77 1014.8
20260902233001 88 245 0.0 0.0 0.00 0.00 0.00 75 1014.7
20260902231501 89 262 0.0 0.0 0.00 0.00 0.00 73 1014.8
20260902230004 90 221 0.0 0.0 0.00 0.00 0.00 71 1014.8
20260902224501 90 248 0.0 0.0 0.00 0.00 0.00 68 1014.8
20260902221501 91 243 0.0 0.0 0.00 0.00 0.00 67 1014.9
20260902220005 91 280 0.0 0.0 0.00 0.00 0.00 67 1014.8
20260902214501 91 224 0.0 0.0 0.00 0.00 0.00 67 1014.9
20260902213001 91 256 0.0 0.0 0.00 0.00 0.00 67 1014.8
20260902211502 91 271 0.0 0.0 0.00 0.00 0.00 65 1014.8
20260902210002 92 268 0.0 0.0 0.00 0.00 0.00 67 1014.9
20260902204502 92 252 0.0 0.0 0.00 0.00 0.00 66 1014.9
20260902203002 92 280 0.0 0.0 0.00 0.00 0.00 66 1015.1
20260902201502 92 282 0.0 0.0 0.00 0.00 0.00 67 1015.2
20260902200005 92 248 0.0 0.0 0.00 0.00 0.00 65 1015.4
20260902194502 92 223 0.0 0.0 0.00 0.00 0.00 66 1015.6